445  
ASUS43 KFGF 202331  
RWRFGF  
PRAIRIE TO PINES WEATHER ROUNDUP  
NATIONAL WEATHER SERVICE EASTERN NORTH DAKOTA/GRAND FORKS ND  
500 PM CST THU FEB 20 2020  
 
**SATELLITE DATA USED TO AUGMENT SKY COVER AT AUTOMATED STATIONS**  
***** WEATHER ACROSS EASTERN NORTH DAKOTA *****  
 
CITY SKY/WX TMP DP RH WIND PRES REMARKS
 
GRAND FORKS FAIR 17 11 77 S17 30.35F WCI 1  
GRAND FRKS AFB CLEAR 24 15 68 SW13 30.34F WCI 13  
GRAND FRKS NWS N/A 17 13 85 S10 30.31F WCI 5  
DEVILS LAKE FAIR 24 16 71 SW14 30.28F WCI 12  
FARGO FAIR 17 10 74 S15 30.44F WCI 2  
WAHPETON ARPT N/A 19 12 73 SE8 30.48F WCI 9  

 
 
***** WEATHER ACROSS CENTRAL AND WESTERN NORTH DAKOTA *****  
 
CITY SKY/WX TMP DP RH WIND PRES REMARKS
 
BISMARCK FAIR 33 18 53 S14 30.34F WCI 23  
MINOT FAIR 39 17 41 S13 30.21F  
JAMESTOWN FAIR 28 15 58 SW13 30.35F WCI 17  
MINOT AFB FAIR 38 17 41 SW12 30.19F  
GARRISON N/A 34 21 59 SW13 30.25F WCI 25  
WILLISTON NOT AVBL  
DICKINSON FAIR 36 16 44 SW20 30.24F  
HETTINGER FAIR 36 17 46 SW14 30.31F  

 
 
***** OTHER AIRPORT OBSERVATIONS IN OUR AREA *****  
 
CITY SKY/WX TMP DP RH WIND PRES REMARKS
 
WALHALLA FAIR 28 16 59 SW8G16 30.24F WCI 20  
GRAFTON AIRPOR FAIR 21 16 79 S14 30.32F WCI 8  
VALLEY CITY AR FLURRIES 19 16 86 S17 30.38F WCI 4  
CANDO FAIR 27 18 69 SW14 30.26F WCI 15  
CAVALIER APRT FAIR 23 16 74 S9 30.26F WCI 13  
GWINNER CLEAR 16 12 86 SW17 30.44F WCI 0  
SHEYENNE NWR N/A 18 10 71 SW10 29.95S WCI 6  
ROLLA FAIR 27 16 63 S9 30.19F WCI 17  
***** THE ABOVE OBSERVATIONS ARE NON NWS ARE NOT QUALITY  
CONTROLLED AND MAY MIS-REPORT RAIN FOR SNOW...  

 
 
***** WEATHER ACROSS NORTHERN MINNESOTA *****  
 
CITY SKY/WX TMP DP RH WIND PRES REMARKS
 
FLAG ISLAND N/A 16 5 62 SW15G23 30.23F WCI 1  
WARROAD FAIR 14 7 73 SW14G21 30.28F WCI -1  
ROSEAU FAIR 14 7 73 SW10 30.30S WCI 1  
HALLOCK FAIR 14 10 85 S17 30.29F WCI -3  
THF RVR FALLS FAIR 11 5 77 S17 30.37F WCI -6  
BAUDETTE FAIR 20 8 60 SW12G25 30.28F WCI 8  
WASKISH FAIR 19 10 68 W12 30.34S WCI 7  
CROOKSTON FAIR 14 9 79 S17 30.38F WCI -3  
STEPHEN NDAWN N/A 14 9 79 MISG N/A  
GREENBUSH NDAW N/A 12 7 79 MISG N/A  

 
***** WEATHER ACROSS CENTRAL AND WEST MINNESOTA *****  
 
CITY SKY/WX TMP DP RH WIND PRES REMARKS
 
FOSSTON FAIR 12 5 73 S17 30.39F WCI -5  
BEMIDJI FAIR 21 9 60 SW10 30.37F WCI 10  
PARK RAPIDS FAIR 15 4 61 SW12 30.42F WCI 2  
ELBOW LAKE FAIR 14 8 79 S14 30.49F WCI -1  
WADENA FAIR 16 7 67 S8 30.46F WCI 5  
DETROIT LAKES FAIR 19 10 68 S13 30.43F WCI 7  
MOORHEAD FAIR 19 9 63 S12 30.45F WCI 7  
FERGUS FALLS FAIR 16 9 73 S13 30.50F WCI 2  
MORRIS MN NOT AVBL  
STAPLES FAIR 16 5 62 S8 30.47F WCI 5  

 
***** WEATHER ELSEWHERE ACROSS MINNESOTA *****  
 
CITY SKY/WX TMP DP RH WIND PRES REMARKS
 
DULUTH FAIR 17 -1 45 W16 30.41F WCI 2  
INTRNTL FALLS FAIR 25 8 48 SW10G22 30.29F WCI 15  
ELY FAIR 18 1 49 SW13G20 30.34F WCI 4  
CLOQUET FAIR 18 -2 41 SW15 30.43F WCI 3  
WHEATON N/A 21 12 68 S8 30.50F WCI 12  
BRAINERD FAIR 20 5 52 S13 30.48F WCI 7  
HIBBING FAIR 19 2 47 VRB6 30.38F WCI 11  
ALEXANDRIA FAIR 14 6 70 S13 30.50F WCI 0  
SAINT CLOUD FAIR 12 -2 53 S12 30.55F WCI -2  
MINNEAPOLIS FAIR 14 -7 38 SW10 30.63F WCI 1  

 
 
***** WEATHER ACROSS SOUTH DAKOTA *****  
 
CITY SKY/WX TMP DP RH WIND PRES REMARKS
 
SIOUX FALLS FAIR 25 15 66 S9 30.57F WCI 15  
BROOKINGS FAIR 23 17 78 S12 30.53F WCI 12  
WATERTOWN FAIR 19 13 77 S9 30.49F WCI 8  
HURON FAIR 26 19 74 SE9 30.51F WCI 17  
SISSETON N/A 22 13 68 SW20G26 30.44F WCI 7  
ABERDEEN FAIR 20 13 74 S10 30.49F WCI 9  
MITCHELL FAIR 31 19 61 S13 30.54F WCI 21  
PIERRE FAIR 42 16 34 S9 30.41F  
MOBRIDGE FAIR 26 16 65 S13 30.38F WCI 15  
RAPID CITY FAIR 39 19 44 SE14 30.31F  

 
 
***** SOME WEATHER IN NEARBY STATES *****  
 
CITY SKY/WX TMP DP RH WIND PRES REMARKS
 
GLASGOW MT FAIR 38 17 42 S10 30.13F  
GREAT FALLS MT FAIR 46 4 17 SW29G39 30.13S  
CHEYENNE WY FAIR 35 9 33 S12 30.36F  
SCOTTSBLUFF NE FAIR 42 10 27 S8 30.41F  
OMAHA NE FAIR 28 9 44 SW6 30.70F WCI 22  
DES MOINES IA FAIR 22 1 40 SW5 30.71F WCI 16  
DAVENPORT IA FAIR 21 3 45 NW12 30.72F WCI 9  
CHICAGO IL FAIR 22 -4 32 W6 30.64F WCI 14  
EAU CLAIRE WI FAIR 13 -7 40 SW10 30.62F WCI 0  
LA CROSSE WI FAIR 15 -6 39 NW6 30.68F WCI 6  

 
 
***** SOME NATIONAL WEATHER *****  
 
CITY SKY/WX TMP DP RH WIND PRES REMARKS
 
LA GUARDIA NY MOCLDY 34 10 37 NW13 30.38R WCI 25  
RALEIGH NC SNOW 33 32 96 NE6 30.32S VSB 1/2  
ATLANTA GA LGT RAIN 41 36 82 NE20 30.21S  
NEW ORLEANS LA LGT RAIN 51 46 83 N14G29 30.23R  
OKLAHOMA CITY PTSUNNY 40 23 50 N18G25 30.64S  
ALBUQUERQUE NM FAIR 43 23 45 E22 30.40F  
SALT LAKE CITY FAIR 40 11 30 N7 30.41F  
LOS ANGELES CA FAIR 71 51 49 W10 30.02F  
BOISE ID FAIR 44 12 27 SE13 30.38F  
SEATTLE WA FAIR 56 28 34 NW5 30.21F  

 
 
*** WEATHER ACROSS MANITOBA...SASKATCHEWAN AND ONTARIO ***  
***ONTARIO***  
 
CITY SKY/WX TMP DP RH WIND PRES REMARKS
 
GERALDTON MOCLDY 19 -6 32 SW15G26 30.10F WCI 5  
THUNDER BAY CLEAR 21 1 42 W15G23 30.29F WCI 8  
SIOUX LOOKOUT PTCLDY 21 9 58 SW13 30.13F WCI 9  
TORONTO PTCLDY 19 3 49 NW15 30.50R WCI 5  
BIG TROUT LK CLEAR 16 7 67 SW12G17 29.79F WCI 3  
PICKLE LAKE PTCLDY 19 5 53 SW16G22 29.95F WCI 5  
DRYDEN CLEAR 23 9 54 SW14G21 30.15F WCI 11  
KENORA PTCLDY 14 5 67 S16G25 30.18F WCI -2  

 
*** MANITOBA***  
 
CITY SKY/WX TMP DP RH WIND PRES REMARKS
 
BRANDON CLEAR 25 16 68 SW15G23 30.14F WCI 12  
DAUPHIN CLEAR 32 16 51 SW14G23 30.01F WCI 22  
ISLAND LAKE PTCLDY 27 10 50 W12 29.78F WCI 16  
PILOT MOUND N/A 25 18 74 SW17 N/A WCI 11  
THE PAS CLEAR 39 16 38 SW17G26 29.74F  
THOMPSON MOCLDY 32 16 51 S7 29.57F  
WINNIPEG PTCLDY 18 10 73 S20 30.19F WCI 1  
LYNN LAKE CLEAR 34 21 60 W8G18 29.50F  
CHURCHILL MOCLDY 12 5 73 SW17G26 29.35F WCI -5  
GILLAM CLOUDY 19 9 63 SW10G21 29.55F WCI 8  

 
***SASKATCHEWAN***  
 
CITY SKY/WX TMP DP RH WIND PRES REMARKS
 
ESTEVAN SUNNY 30 19 64 SW9 30.14F WCI 22  
KINDERSLEY SUNNY 30 21 69 SW14G21 29.88F WCI 20  
LLOYDMINSTER MOSUNNY 25 14 63 W10 29.82F WCI 15  
PRINCE ALBERT MOSUNNY 27 16 63 SW10 29.83F WCI 17  
REGINA SUNNY 34 19 55 SW16G23 30.02F WCI 23  
YORKTON CLEAR 28 18 64 S13G18 29.98F WCI 18  
N. BATTLEFORD SUNNY 25 16 68 W13 29.87S WCI 13  
LA RONGE PTCLDY 39 14 35 SW9 29.68F  
SASKATOON SUNNY 30 21 69 SW20 29.85F WCI 18  
SWIFT CURRENT SUNNY 28 18 64 SW24G32 29.93F WCI 14  

 
NOTE: THESE ARE AUTOMATED STATIONS WITH LIMITED QUALITY CONTROL  
"FAIR" INDICATES FEW OR NO CLOUDS BELOW 12,000 FEET WITH NO  
SIGNIFICANT WEATHER AND/OR S TO VISIBILITY
.  
SKY/WX - SKY CONDITION AND SIGNIFICANT WEATHER.  
TMP - AIR TEMPERATURE. DP - DEWPOINT TEMPERATURE.  
RH - RELATIVE HUMIDITY. PRES - PRESSURE.  
HX - HEAT INDEX. WCI - WIND CHILL INDEX.  
$  
 
 
CLICK HERE TO GO TO PREVIOUS BULLETINS.

The Nexlab ND Page
The Nexlab MN Page Main Text Page